Total_Precipitation_Accumulation
0.15 0.22 0.29 0.31 0.26 0.21 0.17 0.21 0.33 0.31 0.34 0.42 0.49 0.47 0.55 0.58 0.50 0.47 0.41 0.42 0.43 0.47 0.50 0.53 0.53 0.49 0.47 0.44 0.46 0.52 0.63 0.71 0.81 0.78 0.76 0.75 0.70 0.63 0.62 0.68 0.68 0.81 0.89 0.91
0.15 0.17 0.21 0.24 0.25 0.18 0.13 0.12 0.15 0.25 0.42 0.44 0.43 0.45 0.46 0.44 0.42 0.41 0.43 0.49 0.52 0.55 0.58 0.51 0.49 0.43 0.40 0.41 0.44 0.51 0.60 0.64 0.72 0.72 0.66 0.61 0.58 0.54 0.52 0.59 0.68 0.77 0.76 0.80
0.23 0.20 0.26 0.30 0.25 0.18 0.13 0.11 0.12 0.29 0.53 0.48 0.45 0.46 0.45 0.47 0.45 0.38 0.40 0.42 0.44 0.44 0.47 0.40 0.39 0.40 0.40 0.44 0.46 0.49 0.56 0.62 0.70 0.75 0.73 0.62 0.53 0.57 0.58 0.65 0.72 0.75 0.73 0.73
0.33 0.38 0.53 0.36 0.22 0.19 0.20 0.18 0.19 0.24 0.33 0.38 0.43 0.43 0.36 0.33 0.32 0.32 0.37 0.41 0.43 0.44 0.41 0.41 0.40 0.41 0.40 0.38 0.40 0.46 0.52 0.58 0.62 0.69 0.71 0.69 0.65 0.68 0.73 0.81 0.86 0.86 0.78 0.79
0.44 0.52 0.46 0.39 0.32 0.30 0.34 0.34 0.31 0.40 0.37 0.39 0.40 0.36 0.35 0.25 0.25 0.25 0.30 0.36 0.39 0.43 0.47 0.53 0.50 0.53 0.54 0.51 0.53 0.59 0.61 0.66 0.65 0.69 0.76 0.80 0.79 0.79 0.86 0.92 0.94 0.96 0.91 0.91
0.56 0.69 0.69 0.59 0.47 0.41 0.44 0.68 0.52 0.52 0.53 0.55 0.53 0.56 0.49 0.31 0.25 0.27 0.28 0.32 0.35 0.32 0.34 0.45 0.51 0.61 0.69 0.74 0.75 0.81 0.85 0.90 0.91 0.96 1.02 0.98 1.06 1.14 1.13 1.13 1.08 1.08 1.06 1.05
0.72 0.83 0.83 0.65 0.54 0.48 0.82 0.95 0.57 0.53 0.58 0.62 0.63 0.63 0.47 0.34 0.29 0.31 0.28 0.29 0.32 0.37 0.35 0.42 0.52 0.65 0.81 0.92 0.92 0.98 1.01 1.09 1.18 1.27 1.39 1.47 1.56 1.51 1.45 1.42 1.39 1.29 1.17 1.16
1.02 1.13 1.04 0.65 0.61 0.82 0.98 0.74 0.75 0.66 0.61 0.60 0.54 0.54 0.50 0.43 0.40 0.31 0.32 0.34 0.37 0.47 0.44 0.47 0.56 0.67 0.79 0.92 1.05 1.18 1.24 1.34 1.43 1.54 1.57 1.64 1.95 2.00 2.04 1.97 1.74 1.57 1.51 1.39
1.07 1.12 0.86 0.69 0.82 0.86 0.81 0.82 0.85 0.77 0.63 0.59 0.51 0.48 0.48 0.44 0.36 0.28 0.28 0.34 0.38 0.51 0.56 0.57 0.66 0.86 1.04 1.04 1.15 1.32 1.43 1.54 1.62 1.67 1.76 1.87 2.00 2.06 2.12 2.11 1.90 1.72 1.72 1.65
1.06 1.11 0.91 0.76 0.74 0.83 0.80 0.74 0.77 0.74 0.74 0.72 0.60 0.50 0.55 0.51 0.39 0.33 0.31 0.35 0.40 0.51 0.64 0.81 0.91 1.06 1.24 1.23 1.30 1.44 1.50 1.53 1.60 1.69 1.78 1.89 2.02 2.00 1.96 1.91 1.87 1.82 1.80 1.78
1.22 1.16 1.03 0.89 0.85 0.97 0.96 0.85 0.87 0.85 0.83 0.79 0.65 0.53 0.49 0.47 0.46 0.45 0.46 0.50 0.51 0.59 0.75 0.97 1.14 1.24 1.31 1.33 1.46 1.58 1.60 1.65 1.72 1.75 1.78 1.88 1.91 1.96 1.87 1.78 1.71 1.73 1.74 1.77
1.26 1.17 1.25 1.16 0.96 1.02 1.09 0.95 0.94 0.93 0.86 0.70 0.61 0.58 0.54 0.52 0.51 0.52 0.55 0.56 0.61 0.69 0.81 0.97 1.14 1.31 1.43 1.53 1.62 1.71 1.74 1.68 1.76 1.84 1.88 1.92 1.89 1.75 1.61 1.50 1.39 1.38 1.44 1.49
0.96 0.92 1.03 0.98 0.94 1.04 1.17 1.07 0.86 0.76 0.74 0.68 0.56 0.53 0.52 0.49 0.47 0.49 0.53 0.56 0.63 0.73 0.81 0.91 1.02 1.21 1.42 1.66 1.82 1.90 1.93 1.93 1.92 1.99 2.08 2.08 2.04 1.92 1.80 1.61 1.42 1.28 1.20 1.18
0.82 0.79 0.86 0.88 1.00 0.98 1.00 0.97 0.77 0.64 0.57 0.55 0.54 0.54 0.52 0.45 0.41 0.41 0.48 0.55 0.62 0.72 0.83 0.92 1.01 1.15 1.32 1.55 1.74 1.88 1.91 1.96 1.96 1.99 2.04 2.02 1.97 1.93 1.91 1.81 1.71 1.51 1.27 1.16
0.89 0.82 0.86 0.89 0.90 0.90 0.88 0.81 0.76 0.66 0.57 0.53 0.50 0.52 0.55 0.50 0.47 0.45 0.44 0.48 0.55 0.65 0.79 0.95 1.08 1.14 1.23 1.35 1.44 1.57 1.68 1.76 1.81 1.79 1.81 1.87 1.86 1.83 1.83 1.81 1.72 1.57 1.36 1.25
0.96 0.94 0.94 0.91 0.86 0.80 0.75 0.71 0.71 0.65 0.57 0.61 0.59 0.49 0.49 0.53 0.53 0.51 0.49 0.51 0.61 0.68 0.80 1.00 1.08 1.17 1.38 1.49 1.51 1.57 1.65 1.69 1.72 1.66 1.55 1.53 1.56 1.59 1.56 1.59 1.59 1.50 1.38 1.24
1.03 1.06 1.02 0.97 0.87 0.85 0.87 0.82 0.76 0.66 0.59 0.60 0.65 0.57 0.48 0.46 0.50 0.51 0.51 0.52 0.58 0.65 0.78 0.96 1.03 1.06 1.27 1.50 1.60 1.59 1.55 1.50 1.51 1.49 1.41 1.33 1.37 1.47 1.52 1.55 1.51 1.41 1.28 1.14
0.95 0.95 0.93 0.89 0.85 0.86 0.86 0.78 0.71 0.65 0.59 0.57 0.58 0.59 0.55 0.52 0.52 0.54 0.54 0.55 0.58 0.60 0.65 0.76 0.88 0.96 1.07 1.26 1.43 1.50 1.50 1.42 1.34 1.30 1.27 1.20 1.17 1.25 1.32 1.34 1.26 1.16 1.08 0.96
0.81 0.76 0.73 0.71 0.74 0.80 0.82 0.72 0.65 0.62 0.59 0.57 0.58 0.60 0.56 0.54 0.52 0.52 0.53 0.60 0.71 0.79 0.73 0.72 0.85 0.88 0.97 1.12 1.26 1.29 1.36 1.40 1.32 1.16 1.12 1.15 1.08 1.08 1.04 1.01 0.95 0.90 0.83 0.78
0.76 0.71 0.67 0.74 0.80 0.86 0.88 0.77 0.68 0.65 0.62 0.59 0.59 0.59 0.57 0.56 0.56 0.58 0.62 0.70 0.79 0.87 0.83 0.77 0.72 0.71 0.85 1.06 1.17 1.12 1.11 1.17 1.17 1.07 1.04 1.05 0.99 0.94 0.84 0.81 0.78 0.76 0.74 0.71
0.78 0.75 0.72 0.76 0.81 0.81 0.78 0.73 0.69 0.67 0.62 0.56 0.56 0.57 0.57 0.54 0.53 0.62 0.77 0.84 0.77 0.79 0.79 0.78 0.71 0.69 0.72 0.91 0.99 1.00 0.98 0.99 1.02 0.99 0.97 0.96 0.93 0.87 0.77 0.75 0.73 0.70 0.64 0.61
0.73 0.73 0.72 0.71 0.69 0.66 0.61 0.57 0.54 0.52 0.47 0.44 0.46 0.50 0.56 0.55 0.52 0.57 0.64 0.76 0.80 0.84 0.77 0.74 0.71 0.69 0.67 0.76 0.81 0.91 0.97 0.89 0.85 0.80 0.80 0.80 0.82 0.79 0.70 0.66 0.61 0.54 0.51 0.51
0.55 0.51 0.53 0.53 0.51 0.50 0.46 0.44 0.44 0.45 0.43 0.43 0.46 0.55 0.65 0.64 0.62 0.71 0.70 0.63 0.70 0.71 0.68 0.67 0.67 0.65 0.59 0.61 0.72 0.80 0.89 0.88 0.85 0.76 0.70 0.67 0.64 0.63 0.60 0.56 0.52 0.49 0.51 0.50
0.38 0.36 0.39 0.39 0.39 0.43 0.47 0.46 0.42 0.40 0.38 0.39 0.39 0.49 0.68 0.80 0.75 0.69 0.68 0.65 0.60 0.54 0.51 0.52 0.47 0.47 0.50 0.52 0.62 0.70 0.79 0.81 0.82 0.75 0.68 0.63 0.56 0.55 0.59 0.58 0.51 0.47 0.47 0.46
0.33 0.31 0.35 0.40 0.45 0.53 0.56 0.52 0.45 0.42 0.44 0.45 0.42 0.49 0.66 0.79 0.87 0.78 0.66 0.58 0.53 0.47 0.46 0.44 0.41 0.44 0.46 0.50 0.59 0.69 0.77 0.77 0.78 0.73 0.64 0.58 0.53 0.52 0.55 0.55 0.50 0.45 0.42 0.40
0.39 0.38 0.43 0.47 0.54 0.64 0.64 0.62 0.62 0.60 0.62 0.66 0.65 0.69 0.74 0.73 0.75 0.74 0.66 0.55 0.48 0.49 0.49 0.47 0.44 0.44 0.47 0.56 0.61 0.66 0.73 0.74 0.72 0.68 0.58 0.54 0.49 0.50 0.55 0.53 0.48 0.46 0.41 0.35
0.45 0.45 0.50 0.56 0.65 0.70 0.69 0.70 0.76 0.80 0.86 0.94 0.99 0.92 0.88 0.84 0.78 0.69 0.59 0.50 0.45 0.45 0.48 0.46 0.43 0.42 0.47 0.57 0.63 0.68 0.68 0.69 0.63 0.59 0.57 0.54 0.51 0.53 0.56 0.52 0.47 0.42 0.36 0.34